Theta_e
289 289 289 289 289 288 288 288 287 287 287 290 291 292 292 292 292 292 293 293 293 293 294 294 295 296 296
290 289 289 289 288 288 288 287 287 287 288 289 290 291 291 291 291 292 292 291 291 292 292 292 293 294 295
290 289 288 288 288 288 287 287 287 288 287 289 289 289 290 290 291 291 291 291 290 290 290 291 292 292 293
289 289 288 288 287 287 288 287 288 288 287 287 287 288 289 290 289 289 289 289 288 289 289 290 291 291 292
288 288 288 288 287 288 287 288 288 287 287 287 287 287 287 288 288 287 286 287 287 288 289 290 290 290 291
288 288 289 288 288 288 288 288 289 287 286 287 287 287 287 287 287 286 287 287 288 288 289 289 289 289 290
288 288 289 289 288 288 288 288 289 288 286 287 287 287 287 287 286 286 287 287 287 288 288 288 289 289 289
289 290 291 290 290 290 290 288 287 286 286 287 287 287 287 286 286 285 286 286 287 287 287 288 288 288 287
293 292 292 290 289 288 288 287 287 287 288 287 287 286 286 285 285 284 284 285 286 287 286 286 287 287 286
289 290 290 290 289 289 287 287 287 288 288 287 287 285 286 284 283 283 283 283 284 285 285 285 285 286 285
289 289 289 289 288 289 289 288 289 288 288 286 284 284 284 285 284 283 283 283 283 282 282 283 283 284 284
290 288 288 287 287 287 288 288 289 288 288 287 285 285 284 284 284 283 283 282 282 282 282 282 282 283 284
289 288 288 289 288 288 288 288 288 288 287 286 286 285 284 283 283 283 282 282 282 281 281 281 281 282 282
290 289 288 287 287 288 287 287 286 286 286 285 285 283 282 282 282 282 281 281 281 281 281 281 281 281 281
288 288 287 287 287 287 287 286 285 285 284 284 283 282 282 282 281 281 281 281 281 281 281 281 281 281 281
288 288 287 287 286 286 286 285 284 284 283 283 282 280 280 280 280 280 280 280 280 281 281 281 280 281 281
288 287 287 287 286 285 284 284 283 283 283 282 281 280 281 281 280 280 280 280 281 280 280 280 281 281 281
Wind_Speed
17 17 19 18 18 19 17 18 18 16 15 13 14 15 15 17 17 15 13 11 13 14 13 12 11 10 9
15 14 21 19 18 18 18 18 18 17 15 14 15 15 17 17 16 13 13 14 15 15 14 12 11 10 11
18 15 17 20 18 19 20 19 18 16 16 16 17 19 18 15 13 13 16 17 16 16 14 14 12 12 13
21 22 17 16 17 16 17 15 14 16 17 18 19 17 15 13 13 16 17 17 17 16 15 14 13 13 13
21 19 19 15 15 10 13 13 15 17 16 10 9 11 12 15 19 20 19 18 17 16 15 14 14 13 14
24 21 24 19 15 15 15 10 6 9 8 10 11 13 15 18 20 20 19 18 17 16 15 16 16 16 16
28 27 22 21 17 17 16 16 18 13 12 17 13 16 14 16 19 20 19 20 18 17 17 19 18 15 14
32 30 27 24 24 21 19 17 15 15 13 14 15 17 16 17 19 17 17 17 18 19 17 15 14 14 15
33 32 30 27 22 20 19 15 15 16 15 15 14 13 13 16 16 17 14 12 12 11 9 12 16 18 20
32 31 29 30 26 27 21 18 16 8 15 14 14 6 5 6 7 6 5 9 11 17 20 18 17 17 18
25 25 25 26 28 28 28 27 21 19 15 13 9 8 9 9 10 13 14 16 15 16 20 20 20 20 21
22 23 21 22 27 29 32 32 31 29 22 21 15 16 13 14 13 11 15 17 18 20 19 18 19 20 20
22 23 24 28 25 24 24 25 27 27 25 25 25 20 18 18 15 18 19 18 16 18 17 16 16 14 17
23 21 20 22 23 24 20 22 21 20 25 24 24 24 19 19 20 21 20 15 9 12 15 18 18 19 20
21 19 19 20 21 22 22 18 16 15 14 18 22 22 23 20 20 21 22 23 23 23 20 22 22 21 22
22 21 20 20 19 19 19 17 16 16 15 13 14 10 13 17 24 25 23 22 22 20 21 21 22 23 24
23 22 21 20 20 15 17 17 15 15 15 14 13 12 9 9 14 18 23 21 19 20 22 24 26 27 28
Wind_Direction
263 266 262 264 273 277 278 284 289 288 280 280 274 276 277 285 287 284 276 276 284 286 280 279 276 270 262
263 261 263 270 273 273 276 280 282 281 278 274 272 274 277 282 281 273 263 278 282 278 273 275 267 264 266
253 262 265 270 274 276 279 281 278 278 276 268 270 270 271 274 269 271 271 278 275 273 269 269 262 271 261
246 253 259 261 261 266 273 275 270 277 278 276 270 264 265 251 263 279 272 270 270 269 265 261 263 271 256
240 244 246 243 241 256 255 269 273 274 278 265 264 250 247 246 272 280 276 269 268 265 258 259 263 261 258
235 233 241 242 246 246 249 255 276 249 254 261 256 264 261 263 276 282 268 265 264 257 255 260 261 261 261
232 231 240 241 237 245 238 239 247 259 259 274 265 270 264 271 283 277 264 266 261 252 262 262 260 252 251
235 241 250 250 244 246 249 252 252 253 241 268 275 265 274 272 283 273 262 260 258 262 259 250 243 244 261
233 242 263 247 242 238 232 234 253 253 236 240 272 274 273 278 277 270 258 253 251 238 241 258 257 260 269
238 242 252 246 238 233 232 224 229 251 237 232 252 241 285 274 265 236 183 270 258 253 273 272 263 262 264
238 247 250 242 236 233 231 227 229 236 250 223 222 225 227 262 258 265 268 276 272 273 274 268 265 262 265
224 228 228 230 239 237 235 237 241 247 250 232 233 225 232 252 261 268 272 273 273 275 273 270 270 265 258
222 226 225 246 250 249 245 245 252 251 250 247 246 245 240 249 265 272 279 276 269 267 269 264 264 268 273
231 234 231 229 229 239 230 239 233 243 249 250 252 245 241 246 256 267 268 258 261 265 267 267 266 264 263
220 223 222 222 220 218 222 222 227 236 235 244 245 244 247 251 261 261 261 260 260 266 266 264 264 261 261
223 223 222 218 221 215 223 221 229 235 236 229 233 232 254 262 251 256 256 257 262 263 261 258 264 264 263
222 221 222 217 214 214 217 218 228 232 230 224 222 227 257 262 263 242 244 255 264 263 257 252 259 266 267